Theta_e
310 312 311 309 312 312 312 316 316 315 320 323 319 316 312 314 323 326 320 318 318 311 307 308 309 309 311 311 309 310 313 316 318 318 318 319 318 317 316 316 316 316 316 313 308 307 308 311 315 316 318 320 321 322 322 321 321 321 321 322 321 321 321 321 322 322 321 321 320 320 319 318 319 319 319 319 319 318 317 317 318 318 318 318 318 318 318
310 312 313 310 311 315 315 315 314 314 319 319 317 316 312 311 316 318 316 316 312 306 305 306 306 306 307 306 306 308 311 314 317 319 319 318 318 316 315 315 314 313 311 307 305 306 305 306 308 310 313 317 319 322 322 322 322 321 321 322 321 321 321 321 321 321 321 321 320 319 319 318 319 319 319 319 319 318 317 318 318 319 319 319 319 319 318
311 312 313 309 312 318 317 313 312 312 313 314 315 315 312 312 312 309 311 316 310 304 305 304 303 305 305 305 307 307 307 309 313 317 317 317 316 315 314 313 312 313 309 303 303 305 305 304 305 305 307 310 315 319 320 321 322 321 321 320 319 318 318 319 319 319 318 319 318 316 316 316 316 317 317 318 319 318 319 319 319 320 319 320 320 320 320
312 310 311 311 313 315 314 313 314 313 313 313 312 310 308 310 310 309 314 316 309 305 306 303 302 303 303 304 305 305 306 306 308 311 312 311 312 311 311 310 309 310 308 302 301 303 304 304 304 304 304 305 308 310 313 315 316 316 314 313 311 310 311 313 315 315 315 315 314 313 312 312 313 313 314 315 316 316 316 316 316 317 317 317 318 318 317
310 309 311 312 313 313 313 312 309 308 309 309 308 307 304 303 306 311 315 312 306 305 305 302 301 301 301 302 303 303 304 304 305 307 308 308 308 308 307 308 307 307 305 302 301 303 304 304 304 304 304 304 305 306 307 308 308 308 308 307 307 307 307 308 309 309 310 310 310 310 310 310 310 310 310 311 310 310 310 311 311 312 312 312 312 312 311
310 309 311 311 312 314 312 307 304 305 308 307 307 306 303 302 304 306 308 306 303 303 303 301 301 300 300 300 300 300 301 302 302 303 305 307 308 307 307 307 306 303 303 303 304 305 305 304 304 304 304 304 305 305 306 306 306 307 307 306 307 307 306 306 307 307 308 308 308 308 308 308 308 308 308 308 308 308 309 309 310 310 310 310 309 309 309
313 310 312 312 313 312 308 304 304 305 304 304 303 303 301 302 304 303 303 303 303 303 302 301 301 300 299 299 298 297 298 299 299 300 301 304 306 306 308 308 306 303 303 304 305 305 305 305 304 305 304 304 304 305 305 306 306 306 306 306 306 307 306 306 307 306 307 308 308 308 307 307 307 307 307 308 307 307 308 308 309 309 309 309 308 308 308
309 310 313 313 309 305 304 306 306 305 304 305 307 306 303 302 303 303 303 303 303 303 303 302 304 303 300 298 297 297 297 297 298 298 299 300 300 301 302 303 304 304 305 306 305 305 306 306 305 305 305 304 305 305 305 305 305 305 305 306 306 306 306 306 306 306 307 307 308 308 308 308 308 307 308 307 307 307 308 308 308 308 308 308 308 308 307
309 312 311 308 307 306 307 307 305 304 304 305 307 308 303 301 302 303 302 304 304 304 305 305 305 306 303 299 298 297 296 297 297 297 296 296 297 296 296 297 300 302 305 306 305 304 305 305 305 305 305 305 305 305 305 305 305 305 305 305 306 306 306 306 306 306 306 306 307 307 307 307 307 307 307 307 307 308 308 308 308 308 308 308 307 307 307
309 313 312 309 311 313 310 307 304 303 303 302 304 308 305 301 302 301 301 304 304 304 306 305 305 307 306 302 300 298 297 297 297 296 296 295 295 296 296 297 298 299 301 302 300 300 301 302 303 304 305 305 305 305 304 304 304 305 305 305 305 305 305 305 305 306 306 306 306 306 306 306 306 306 306 306 306 307 307 308 308 308 308 308 308 308 307
307 313 316 313 313 311 306 304 303 303 302 301 304 309 307 302 300 300 300 301 302 302 304 303 305 310 308 301 299 300 298 297 296 296 296 295 295 296 297 297 298 298 298 298 298 298 299 299 300 301 302 303 304 304 304 304 304 305 305 305 305 305 305 306 306 306 306 306 305 305 305 305 305 305 305 305 305 305 305 306 306 306 307 307 308 308 308
309 312 313 309 307 306 302 301 303 301 299 300 305 311 309 301 299 299 299 301 301 300 301 303 305 308 305 301 300 300 297 295 295 296 296 296 296 297 297 297 298 298 299 298 298 298 299 299 299 299 300 301 302 303 303 303 304 304 304 305 305 305 305 305 305 306 306 306 306 306 306 305 305 305 305 305 305 305 304 305 304 305 305 306 306 307 307
310 312 312 307 305 304 300 299 301 300 299 302 307 310 305 299 298 298 298 300 300 299 301 302 301 301 301 301 300 298 297 296 296 296 296 297 297 297 298 298 298 298 298 298 298 298 298 298 299 299 300 300 300 301 302 302 303 302 302 303 304 305 305 305 305 305 305 305 305 305 305 305 305 305 304 304 304 304 305 304 304 305 305 305 306 306 307
307 308 310 308 306 302 298 299 301 301 303 306 306 302 299 298 298 297 297 299 299 299 300 300 299 299 300 300 300 299 298 298 297 296 296 297 297 297 297 298 298 298 298 298 298 299 298 298 299 299 299 299 300 300 300 300 300 300 300 301 302 303 304 305 304 305 305 304 304 304 305 304 304 304 304 304 304 304 304 304 304 305 305 305 306 306 307
305 307 307 308 306 300 297 300 302 302 304 304 300 298 298 299 299 298 298 298 298 299 299 298 298 300 301 300 300 300 300 298 296 295 296 296 296 296 297 297 297 297 298 298 298 298 298 298 298 298 298 299 299 300 300 300 300 300 300 300 300 301 302 304 305 304 304 304 304 304 304 304 303 304 304 303 304 303 303 304 304 304 305 305 305 305 305
306 309 306 303 302 298 297 300 301 300 300 300 299 299 300 299 298 298 299 298 297 298 298 297 298 300 300 300 299 299 300 298 294 293 294 295 295 296 296 297 297 297 297 297 297 298 298 298 298 298 298 298 298 299 300 300 300 300 300 300 300 300 301 302 304 304 304 303 303 303 304 303 303 304 304 304 304 304 303 304 304 304 305 304 304 304 304
301 304 301 298 298 297 297 299 298 298 299 300 300 301 300 299 298 298 298 298 298 298 297 298 300 299 298 299 298 297 298 296 293 293 294 295 295 295 295 296 296 296 296 297 297 297 298 298 298 298 298 298 298 298 299 299 299 300 300 301 301 301 301 301 303 304 303 303 303 303 303 304 303 304 303 304 304 303 304 304 304 304 304 303 303 303 303
297 299 298 297 298 298 297 298 298 298 298 299 299 301 301 300 299 299 298 298 299 299 298 298 300 300 298 298 298 297 296 295 293 292 294 294 294 295 295 295 295 295 295 296 296 296 297 297 298 298 298 298 298 298 298 298 298 299 299 300 301 301 302 302 302 303 303 303 303 303 304 304 303 303 304 303 303 303 303 303 303 303 303 303 303 303 303
300 299 297 296 298 297 296 298 298 298 298 298 299 301 300 299 299 298 298 298 297 297 297 297 298 298 297 296 296 295 295 294 292 291 292 293 293 294 294 294 294 294 294 294 294 295 295 296 297 297 298 298 298 298 298 297 298 298 298 299 300 301 301 302 302 302 303 303 303 303 303 304 303 304 303 303 303 303 303 303 303 302 302 303 302 302 302
300 298 296 297 297 297 297 298 299 299 299 298 298 299 298 298 296 294 294 295 295 295 295 295 295 296 295 295 295 294 293 292 290 291 291 292 292 293 293 293 293 293 293 293 293 293 294 295 296 296 297 298 298 298 298 297 297 297 297 298 299 300 301 301 301 302 302 303 303 303 303 303 303 303 303 303 303 303 302 302 302 302 302 302 302 302 302
297 296 296 297 297 296 297 298 298 299 299 297 298 298 297 297 297 295 293 292 292 293 293 292 293 295 294 292 292 292 291 290 289 290 291 291 291 291 291 291 292 292 292 292 292 292 293 293 294 294 295 296 297 298 298 298 298 298 298 298 299 299 300 300 301 302 302 303 303 303 303 303 302 302 302 302 302 302 302 302 302 302 302 302 302 303 303
298 298 298 298 298 299 298 297 298 298 298 298 299 298 298 299 298 297 296 293 291 291 291 290 291 294 293 290 289 289 289 289 289 289 289 289 290 290 290 290 290 290 290 291 291 291 291 291 292 292 293 294 296 297 297 298 298 299 299 299 299 299 300 300 301 302 302 302 302 302 302 302 302 302 302 302 302 302 302 302 302 302 302 302 302 302 303
299 299 300 299 300 301 299 298 299 298 297 298 299 298 298 298 295 293 294 294 293 292 291 290 290 291 290 289 288 287 287 288 288 288 288 288 288 288 289 289 289 289 289 290 290 290 290 290 290 291 291 293 294 296 296 297 298 299 299 299 299 300 300 300 301 302 302 302 302 302 302 301 301 301 301 301 301 301 301 301 301 301 301 302 302 302 303
297 299 302 301 300 299 298 298 300 297 294 295 298 297 295 294 293 291 291 292 292 292 291 290 290 289 289 288 288 287 287 288 288 288 288 288 288 288 289 288 288 288 288 288 288 289 288 288 289 289 290 291 292 294 295 295 296 298 300 300 300 300 300 301 301 301 301 301 301 301 300 300 300 299 299 299 299 299 299 299 299 299 300 300 301 302 302
298 300 302 300 299 299 296 295 295 294 292 293 296 295 293 292 291 291 290 290 290 290 290 289 289 289 289 288 288 288 287 287 288 288 288 288 288 288 288 288 288 288 288 288 288 288 288 288 288 288 289 290 291 293 294 294 295 298 300 300 300 300 300 301 301 301 300 300 300 299 299 298 298 298 297 297 297 297 297 297 297 297 298 298 299 300 300
299 300 300 298 297 297 295 294 295 294 292 293 293 293 292 292 292 291 291 290 290 290 289 289 289 289 288 288 288 288 288 288 288 288 288 288 288 288 288 288 288 288 288 288 288 288 288 288 288 289 290 290 291 292 293 293 295 297 299 300 300 300 300 300 300 299 299 299 298 298 297 297 297 297 296 296 295 295 296 296 296 296 297 298 299 300 300
299 300 298 296 296 296 296 297 297 293 291 292 292 291 292 292 292 291 290 290 290 290 290 290 289 289 289 288 288 288 288 288 288 288 288 288 288 288 288 288 288 288 288 288 288 288 288 288 289 289 290 290 290 291 292 293 294 296 298 299 299 299 299 299 298 298 297 297 296 296 296 296 295 296 296 295 294 294 294 295 295 296 296 297 299 300 300
299 298 295 295 298 299 296 295 293 291 290 291 291 291 291 291 290 290 290 290 289 290 290 290 289 289 288 288 288 287 287 287 288 288 288 288 287 287 287 287 287 287 287 287 287 287 288 288 289 289 289 289 289 290 291 292 293 295 296 297 298 298 297 297 296 296 295 295 295 294 295 295 294 295 295 295 294 294 294 295 295 295 295 295 295 296 297
298 297 296 295 294 293 293 292 291 292 292 291 291 291 290 290 291 292 291 290 288 288 288 289 289 288 288 288 287 286 286 287 287 288 288 287 286 286 286 286 287 287 287 287 287 287 288 288 288 288 288 288 288 288 290 291 292 294 295 296 296 296 296 295 295 294 294 294 294 293 294 294 294 294 295 295 295 295 294 294 294 294 293 293 292 293 293
297 296 297 296 292 291 293 294 294 295 294 292 291 291 289 289 292 293 292 289 287 288 288 288 288 288 288 287 287 287 286 287 287 287 287 286 286 286 286 286 287 287 287 287 287 287 287 288 288 288 288 288 288 288 289 290 292 294 295 295 295 295 294 294 294 293 293 293 293 293 293 293 293 294 294 294 294 294 294 293 293 292 291 291 291 291 292
298 295 296 297 294 294 296 297 296 296 295 291 291 292 291 290 292 293 292 289 287 287 287 287 287 287 287 287 287 287 287 287 287 286 286 286 286 286 286 286 287 287 287 287 287 287 287 288 288 288 288 288 288 288 289 290 292 293 294 295 294 294 294 294 293 293 293 293 292 292 292 292 292 293 293 293 293 293 292 292 291 290 290 289 289 290 291
298 296 295 295 294 294 296 296 296 297 296 293 292 293 292 291 291 292 292 290 288 287 287 287 287 287 288 287 287 287 286 286 286 285 286 286 286 286 286 286 287 287 287 287 287 287 287 287 288 288 288 288 288 288 289 290 292 293 294 294 294 294 294 294 293 293 293 293 292 291 291 291 291 291 292 292 291 291 291 290 290 289 289 289 289 289 290
299 297 296 296 295 295 296 295 295 296 296 293 292 291 290 290 290 290 290 289 288 287 287 287 288 288 288 287 287 286 285 285 285 285 286 286 286 286 286 286 286 286 287 287 288 288 288 288 288 288 288 288 289 289 289 290 293 294 294 294 294 294 294 293 293 293 293 293 292 291 291 291 291 290 290 290 290 290 290 290 290 290 290 290 290 290 290
298 298 297 297 296 295 296 296 296 296 296 293 290 289 290 290 290 289 289 288 287 287 288 288 289 288 287 287 287 286 285 285 285 285 285 285 286 286 287 287 287 287 287 288 289 288 288 288 288 288 289 289 289 289 290 292 294 295 294 294 294 294 294 293 293 293 293 293 293 292 291 291 291 291 291 290 290 290 290 290 290 290 290 290 290 290 291
294 294 293 293 293 293 293 294 295 295 295 294 292 291 291 291 290 289 289 288 288 289 289 289 289 288 287 287 287 286 284 285 285 285 285 285 286 286 287 287 287 287 288 289 289 289 289 290 290 289 290 289 289 290 292 294 295 295 294 295 295 294 293 293 293 293 293 293 293 292 292 291 291 291 291 291 291 291 291 290 291 291 290 290 290 291 291
292 292 292 292 293 293 293 293 293 292 292 292 292 291 291 290 290 289 289 290 290 290 289 289 288 287 286 287 287 285 284 284 284 285 285 286 286 287 287 287 287 287 288 289 290 290 290 291 291 290 290 290 291 292 294 295 295 295 295 295 295 294 294 293 293 293 293 293 293 293 292 292 292 291 291 291 291 291 291 291 291 291 291 291 291 291 291
293 293 294 294 294 294 293 293 293 292 292 292 292 291 291 291 291 291 291 290 290 289 288 288 288 286 286 287 286 285 284 284 284 284 285 286 286 287 287 287 287 287 287 288 289 290 290 290 290 291 291 292 294 295 296 295 295 295 295 295 295 294 294 293 293 293 293 293 293 293 293 293 292 292 292 292 292 292 292 292 292 292 292 292 292 292 292
293 293 294 294 294 294 294 293 293 293 293 292 292 292 292 292 292 291 290 289 288 288 288 288 287 285 286 286 286 284 284 285 284 285 285 286 287 287 287 287 286 286 286 288 290 291 292 292 292 293 294 295 296 296 296 295 295 295 295 295 294 294 293 293 293 293 293 293 293 293 293 293 293 292 292 293 293 293 293 293 292 292 292 291 291 291 291
293 293 293 293 293 293 293 293 293 293 293 293 293 293 293 292 291 290 288 288 288 288 288 287 286 285 285 286 285 284 285 285 284 285 285 286 286 287 288 287 287 287 288 290 291 292 293 294 294 295 296 296 296 295 295 295 295 295 295 295 295 294 293 293 293 292 293 293 293 293 293 293 292 292 292 292 292 292 292 292 291 291 291 291 290 290 290
291 293 293 293 293 293 293 293 293 293 293 293 293 292 293 292 290 289 288 288 288 288 288 287 286 285 285 285 285 284 284 285 285 285 285 285 286 287 287 288 288 288 289 291 293 293 294 294 295 295 295 295 295 295 296 295 296 295 295 295 294 294 294 293 293 292 292 293 293 293 292 292 291 291 291 291 291 291 290 290 290 290 290 290 290 290 290
291 292 293 292 293 293 293 293 293 293 292 292 292 292 292 291 290 289 289 288 288 288 287 286 285 285 285 285 284 284 285 285 285 285 285 285 285 285 286 287 287 288 289 290 292 293 294 294 294 294 294 295 295 295 296 295 295 295 295 294 294 294 294 293 293 292 292 292 292 292 292 291 291 290 290 290 290 290 290 290 290 290 290 290 290 290 290
291 291 292 292 292 293 293 293 293 293 292 292 292 292 292 291 290 289 289 288 288 287 287 286 285 285 285 284 284 285 285 285 285 285 285 284 284 284 284 285 287 289 289 291 292 292 293 293 293 294 294 294 295 295 295 295 295 295 294 294 293 293 293 292 292 292 292 292 291 291 291 291 290 290 289 289 289 289 289 289 290 289 289 289 289 289 289
291 291 291 291 292 293 293 293 293 293 292 292 292 292 292 291 290 289 289 288 288 287 287 286 285 285 284 284 284 284 285 285 285 285 285 285 285 285 285 285 288 289 290 291 291 292 292 292 293 293 294 294 295 295 295 295 295 294 293 292 292 292 292 291 291 290 290 290 290 290 290 289 289 288 288 288 288 288 288 289 289 288 288 288 288 288 288
291 291 291 292 292 293 293 293 292 292 292 293 293 293 293 292 290 289 289 289 288 287 287 286 286 285 284 284 284 284 284 284 285 285 285 285 285 286 286 286 287 289 290 291 291 291 292 292 292 293 293 293 294 294 294 294 293 293 292 291 291 291 291 290 290 289 289 289 289 289 289 289 288 288 288 288 287 287 287 287 287 287 287 287 287 286 286
291 292 292 292 293 293 293 293 293 292 293 293 294 294 293 292 291 290 290 289 289 288 287 287 286 286 285 284 284 284 284 284 284 284 284 284 284 285 286 286 287 288 289 290 291 291 291 291 292 292 293 293 293 293 293 292 292 292 291 291 290 290 290 290 289 289 289 289 289 288 288 288 288 287 287 287 287 286 286 286 285 285 285 285 285 285 284
292 292 292 292 292 293 293 294 294 294 293 293 293 293 293 292 291 290 290 290 289 289 288 287 287 286 285 285 284 284 284 284 284 284 284 284 284 284 285 285 286 287 288 289 290 290 290 291 291 292 292 292 292 292 292 292 291 291 291 290 290 290 290 289 289 289 288 288 288 287 287 287 286 286 286 286 285 285 285 284 284 284 284 284 283 283 283
291 292 292 292 293 293 294 294 293 293 292 291 292 293 294 292 291 290 290 290 289 289 288 288 287 287 286 285 285 284 284 284 284 284 284 284 284 284 284 284 285 286 287 287 288 289 289 290 291 291 292 292 292 292 292 291 291 290 290 290 289 289 288 288 288 287 287 287 286 286 286 286 285 285 285 285 284 284 284 284 283 283 282 282 282 282 282
291 292 292 293 293 293 293 292 292 291 291 291 292 294 294 293 292 292 291 290 289 289 288 288 288 287 286 286 285 284 284 284 284 284 284 284 284 284 284 284 284 285 286 286 287 287 288 289 289 290 290 291 291 290 290 289 289 288 288 287 287 287 287 286 286 286 286 286 286 285 285 285 284 284 284 284 284 284 283 283 283 283 282 282 282 281 281
291 292 292 293 292 292 292 291 290 291 291 292 293 294 294 294 294 294 293 292 291 289 289 288 288 287 287 286 285 284 284 284 284 284 284 284 284 283 284 283 283 284 284 285 286 286 287 287 288 288 289 289 288 288 288 287 287 287 286 286 286 286 286 285 285 285 285 285 285 285 284 284 284 284 284 284 283 283 282 282 282 282 282 282 282 281 281
291 291 292 292 292 292 292 291 291 291 292 293 293 294 294 294 293 294 294 293 292 290 289 289 288 288 287 286 285 284 284 284 284 284 284 284 284 283 283 283 283 283 283 284 284 285 286 286 287 287 287 287 287 287 287 286 286 286 286 286 286 285 285 285 285 285 284 284 284 284 284 284 284 284 284 283 283 282 282 281 280 281 282 282 282 281 281
292 291 292 293 293 293 294 293 293 293 293 293 293 294 294 294 293 294 294 294 293 291 289 288 288 288 287 287 286 285 284 284 284 284 284 284 284 283 283 283 283 283 282 283 283 284 284 285 286 286 286 286 286 286 286 285 285 285 285 285 285 285 285 285 285 285 284 284 284 284 284 284 283 283 283 282 282 282 281 280 279 280 281 282 281 281 281
292 292 292 292 293 293 293 293 294 294 293 293 293 293 293 293 293 294 294 293 293 292 291 289 288 288 288 287 286 286 285 284 284 284 284 284 284 283 283 283 283 283 283 282 282 283 283 284 284 285 285 285 285 285 285 285 285 285 284 284 284 284 284 284 285 285 285 284 284 284 283 283 283 282 282 282 281 281 280 279 278 278 279 279 279 279 279
Wind_Speed
4 4 4 4 4 4 2 4 3 3 4 5 4 1 2 2 5 5 4 5 5 2 5 6 6 5 3 4 5 4 4 5 5 5 5 5 4 5 5 5 4 4 3 2 3 6 8 10 12 13 12 10 9 9 9 10 10 9 9 12 14 13 12 11 10 10 10 10 9 8 8 8 8 10 10 10 11 10 9 9 11 11 11 12 13 14 16
5 5 5 5 5 5 5 6 4 2 4 6 5 2 1 0 2 3 7 10 6 3 4 5 5 3 2 4 6 7 7 6 5 5 6 5 5 5 6 6 6 5 5 6 5 4 5 7 8 10 11 12 11 10 9 9 9 8 9 11 12 12 11 10 10 10 10 10 8 6 7 7 7 7 7 8 8 7 7 7 9 9 9 9 10 11 12
4 5 4 4 5 7 3 4 5 3 4 6 4 3 2 2 3 4 7 10 6 3 3 4 4 4 6 9 9 9 8 7 6 6 6 6 6 6 6 5 5 5 6 7 7 7 7 6 6 6 7 10 12 12 11 10 9 8 8 9 9 9 9 9 9 9 9 9 8 8 8 8 8 7 6 6 5 4 4 5 5 5 5 5 5 6 7
1 2 3 5 6 8 5 1 4 5 3 4 3 2 2 1 3 5 6 6 3 2 3 4 6 8 11 11 9 8 8 7 8 8 7 7 6 6 6 6 7 7 6 7 9 10 10 8 7 7 6 7 11 13 13 13 12 11 11 11 11 11 11 11 11 10 10 9 10 10 11 11 11 10 10 9 9 8 7 6 5 4 3 2 2 1 1
3 1 2 4 5 6 2 2 2 3 2 4 4 4 4 3 2 5 4 4 3 2 2 6 9 11 11 10 8 7 7 8 8 8 7 7 7 7 7 7 7 7 8 10 12 14 14 14 12 10 7 6 9 11 12 12 12 12 12 13 13 13 13 13 12 11 11 11 11 13 14 14 14 13 13 12 12 11 11 10 9 8 7 6 5 4 4
4 2 2 3 3 2 3 5 3 1 2 5 6 4 4 5 3 3 3 4 4 3 5 8 9 9 8 7 6 6 6 6 8 8 8 7 7 7 7 7 7 8 11 14 16 18 19 19 18 16 13 10 8 8 9 9 9 9 9 10 11 11 11 12 12 11 11 12 13 14 15 15 15 14 13 13 12 11 10 9 9 8 8 6 5 5 4
4 0 4 4 2 4 3 4 3 2 5 7 10 8 4 5 5 4 5 6 5 5 5 6 8 8 7 7 8 9 8 6 7 8 8 8 7 6 6 6 7 10 13 15 17 18 18 19 18 18 18 16 14 12 11 10 9 9 8 8 8 9 9 9 10 10 10 11 12 13 13 13 13 12 12 10 9 8 7 7 7 6 5 4 4 3 4
3 2 3 3 3 3 3 4 4 2 2 3 7 7 6 6 5 3 4 4 2 2 2 1 2 3 4 7 10 10 9 8 7 8 7 7 7 7 7 7 7 9 11 13 14 14 13 14 15 14 14 13 13 14 14 14 14 12 12 12 11 10 10 10 10 10 11 11 12 11 11 11 11 11 10 9 8 7 6 6 5 4 4 3 2 2 3
3 4 2 1 3 4 2 2 1 0 1 1 3 4 2 4 3 1 4 3 3 2 2 3 2 2 3 7 8 8 8 8 7 7 7 8 9 10 12 13 13 12 10 11 12 12 11 9 7 7 7 6 7 10 11 11 12 12 13 13 11 10 10 10 10 11 11 12 12 12 11 11 11 11 10 10 9 8 7 6 5 3 2 1 1 2 3
3 5 3 1 3 2 4 3 2 1 2 4 4 5 1 4 4 1 4 4 4 4 4 4 3 3 6 6 5 6 7 7 6 7 9 11 12 14 16 18 19 18 15 13 13 14 13 11 7 7 8 4 2 5 7 6 4 5 6 5 3 2 4 4 4 4 6 7 9 10 10 11 10 10 10 9 9 8 6 5 4 2 1 0 1 2 3
2 5 4 2 2 3 4 4 5 5 2 4 4 5 1 3 3 3 3 5 4 4 4 4 3 4 5 2 3 5 5 6 6 6 8 10 13 14 15 16 17 18 16 15 15 17 17 16 14 11 8 7 6 6 5 3 1 2 2 3 4 4 4 5 5 4 3 3 4 5 6 7 7 7 7 7 7 6 5 4 3 2 1 1 2 3 4
2 4 3 2 2 2 2 3 6 6 1 4 6 2 4 3 3 3 3 5 4 3 4 4 5 5 3 3 3 4 4 5 5 5 7 9 11 13 15 15 14 15 16 15 16 17 16 16 16 13 11 9 9 10 11 9 7 7 8 8 8 7 8 8 8 7 6 5 3 2 3 4 4 4 4 4 3 2 2 2 2 2 2 3 4 5 6
3 4 3 0 2 3 2 4 7 5 1 4 3 4 6 1 4 3 3 4 3 4 4 4 4 3 3 3 2 3 4 4 4 7 9 10 11 12 14 14 14 14 15 14 14 14 13 14 14 13 11 9 9 10 12 13 12 11 12 14 14 13 13 12 11 9 9 8 7 7 7 6 4 4 3 2 2 1 0 1 1 1 2 3 4 5 6
2 3 3 1 1 2 3 4 6 4 2 3 3 4 3 2 2 2 3 3 3 4 5 4 2 0 2 2 2 4 4 3 4 7 10 11 13 14 13 13 14 14 14 13 13 12 12 12 13 12 11 9 9 9 11 13 14 14 15 15 16 17 17 16 14 13 13 12 11 11 11 9 7 7 6 5 5 4 3 2 2 2 2 3 3 4 5
1 2 3 2 2 3 5 4 4 4 2 4 3 1 1 2 2 2 3 3 2 3 3 3 2 3 4 4 4 4 4 4 5 7 9 10 11 13 13 13 14 14 15 14 13 13 12 12 13 13 12 11 11 11 11 11 13 15 15 15 16 17 18 18 18 18 16 15 14 14 13 11 10 10 9 8 8 6 5 5 4 4 4 4 4 4 5
1 2 1 2 3 3 5 2 2 2 1 2 2 1 2 2 2 2 3 2 2 1 1 3 3 3 4 4 4 5 5 5 6 8 9 10 11 11 12 13 13 14 14 14 14 13 12 12 12 13 13 13 14 13 12 12 13 14 14 15 17 19 19 19 19 19 18 17 16 15 14 13 12 12 11 10 9 8 7 7 6 6 6 6 6 7 7
2 2 2 2 2 2 4 4 4 3 2 2 2 2 2 1 0 1 1 2 2 1 1 2 2 2 3 4 4 4 5 5 6 8 9 11 12 12 13 13 14 14 15 15 16 15 14 12 12 13 14 15 16 16 15 14 15 15 15 15 17 19 21 21 21 21 20 19 18 17 15 14 13 12 11 11 10 10 9 9 9 9 9 9 10 10 10
3 4 3 2 1 0 1 2 2 3 3 2 3 4 3 2 2 1 1 2 3 3 2 3 3 3 4 5 5 5 5 5 7 10 11 11 12 13 13 14 15 15 16 16 16 16 16 15 14 14 14 15 17 19 18 18 18 17 16 16 15 15 16 17 18 19 19 19 18 17 15 14 13 12 11 11 11 10 10 11 11 11 11 12 12 12 12
3 2 2 2 2 1 1 2 2 2 2 1 2 3 3 2 1 1 2 2 2 3 4 3 3 5 5 5 5 5 5 6 8 11 12 13 14 14 13 13 15 15 16 16 16 16 16 16 15 15 15 16 17 18 19 20 21 20 19 18 16 14 12 12 13 14 15 16 16 16 15 14 13 13 12 12 11 11 11 12 12 12 13 14 14 14 15
2 2 3 2 1 2 2 1 2 2 1 1 2 1 2 3 3 2 3 3 2 2 3 2 1 3 4 4 4 5 5 6 9 11 13 14 15 16 16 16 16 16 16 16 16 16 17 17 17 16 16 16 17 18 18 19 21 22 21 19 18 17 15 13 13 14 14 15 15 15 15 14 13 13 13 13 14 14 14 14 14 15 15 16 17 17 17
2 1 1 1 2 3 4 3 2 4 3 2 2 2 3 4 4 4 5 4 3 3 2 1 1 3 4 4 4 5 5 6 9 12 14 16 17 17 18 19 18 18 18 18 18 19 20 20 20 20 19 18 17 18 18 19 21 23 23 21 20 19 18 18 17 16 16 16 16 15 15 14 14 14 14 14 15 16 16 16 16 17 17 18 18 18 19
1 2 3 4 3 2 4 4 4 4 3 3 3 2 3 4 3 3 4 4 4 4 3 2 2 2 4 5 5 5 6 8 11 14 16 17 17 18 19 19 19 19 19 20 20 21 21 21 22 23 23 22 19 17 18 19 21 23 24 23 21 21 20 20 19 18 17 17 16 16 15 15 15 15 15 15 16 17 17 17 18 19 20 20 19 19 19
3 5 5 5 4 2 4 5 4 3 2 4 4 3 3 2 1 2 3 2 3 3 3 4 3 3 4 6 6 6 7 10 13 15 16 17 18 19 19 19 19 19 19 19 20 20 21 20 21 23 25 25 21 18 18 18 19 20 22 22 22 22 22 21 20 19 18 17 16 15 15 15 15 15 16 16 17 18 19 19 20 21 22 21 21 20 20
2 4 5 5 4 3 4 4 3 2 3 5 4 2 2 1 1 2 3 3 3 3 3 4 5 5 6 8 8 7 9 12 14 15 17 18 19 20 19 18 18 19 19 20 20 21 21 21 21 22 24 25 24 20 18 18 18 17 18 18 20 22 21 19 18 17 15 15 14 14 15 15 15 16 17 18 19 19 20 20 21 22 22 23 23 23 23
1 2 4 5 5 3 2 2 2 2 4 6 4 2 4 4 4 5 5 5 4 4 3 4 6 7 7 8 10 9 10 13 15 16 18 19 19 19 19 19 19 19 20 21 22 22 22 22 22 23 24 24 23 21 19 18 18 16 14 14 15 16 15 13 12 12 13 13 14 15 15 16 16 16 17 18 20 20 19 18 19 20 20 20 22 23 25
2 3 4 4 3 2 3 3 3 1 5 6 5 4 5 5 5 6 6 4 4 3 3 5 8 9 8 9 11 12 13 15 17 18 18 18 19 19 19 19 19 20 21 22 22 22 22 22 23 23 23 22 21 20 18 18 18 14 11 10 10 11 10 10 11 12 13 14 14 15 15 15 16 17 17 18 18 18 17 17 16 17 16 17 20 23 23
2 4 5 4 2 1 2 3 3 5 7 7 6 6 5 4 5 4 3 3 4 5 6 7 9 10 11 12 13 14 16 17 17 17 17 17 19 19 20 20 21 22 22 23 22 22 22 22 22 21 21 21 21 19 17 17 17 14 8 8 8 9 9 10 11 11 12 12 13 13 14 15 16 17 17 17 16 16 16 16 15 13 12 13 15 16 16
1 1 2 2 3 4 4 4 7 8 8 8 7 6 4 3 2 2 2 4 6 8 10 11 10 10 13 15 15 15 16 17 16 16 17 19 20 21 22 22 23 23 23 23 23 22 21 21 21 20 21 23 23 19 16 16 16 13 7 6 6 7 8 8 9 9 10 11 12 13 14 15 16 16 15 15 15 15 15 15 15 13 11 10 10 11 12
2 1 1 2 3 4 5 5 6 6 5 6 6 4 2 1 1 3 3 5 7 8 10 12 12 12 14 15 15 14 15 15 16 17 19 20 21 22 23 23 24 24 23 22 22 21 20 20 20 20 22 24 23 21 18 16 15 12 7 5 5 5 5 6 6 7 8 9 11 12 13 14 14 14 14 14 15 16 15 14 14 14 13 13 14 15 15
2 1 2 3 4 6 6 5 4 4 4 4 4 2 0 0 1 3 4 5 6 6 9 12 14 15 15 15 15 15 15 16 17 19 20 21 21 21 22 23 22 20 19 19 19 19 19 19 20 21 22 21 19 19 18 16 14 11 6 4 3 3 3 4 4 4 5 6 8 10 12 12 12 13 13 14 14 15 15 15 15 16 16 18 19 22 23
2 4 4 3 4 5 4 4 4 4 4 3 3 1 0 1 2 3 4 5 5 7 10 13 14 16 16 16 17 17 16 16 18 19 20 20 20 20 21 21 19 18 18 20 20 19 19 18 19 21 21 18 15 15 17 16 14 10 5 4 3 1 1 2 1 0 2 4 5 7 9 10 10 11 12 13 14 15 15 16 16 17 17 17 18 23 27
5 5 4 1 0 1 2 2 3 4 4 3 3 3 3 3 3 5 5 5 7 9 11 13 14 16 17 17 16 15 14 16 18 18 18 19 20 20 21 20 20 21 22 23 22 21 20 19 19 20 19 16 13 12 14 15 13 8 6 6 4 2 2 1 3 2 3 5 3 4 5 6 7 9 11 13 15 16 17 18 18 18 17 18 20 23 26
5 2 1 2 2 3 4 3 3 4 4 4 4 4 5 5 6 7 8 8 10 11 12 14 16 18 17 15 13 13 15 17 16 16 17 19 20 21 21 21 21 22 21 20 19 18 18 18 18 17 15 13 11 9 9 11 10 8 8 7 5 4 4 4 4 1 5 6 4 2 3 6 8 10 12 14 17 19 20 20 21 21 21 21 21 20 22
6 5 5 5 5 5 5 4 4 4 4 3 3 5 6 7 8 10 11 11 11 11 13 16 18 17 15 12 11 12 15 14 12 13 17 20 20 22 23 22 22 21 18 15 12 12 12 14 14 13 11 10 8 7 9 10 10 9 9 7 5 4 4 5 3 3 6 5 5 6 8 10 12 15 16 17 19 20 20 20 21 22 22 20 18 17 17
8 5 4 5 6 6 6 5 5 5 4 3 3 5 7 9 10 11 12 12 12 13 15 16 16 15 12 9 9 12 15 13 12 15 19 20 20 22 22 21 22 22 18 14 12 11 9 8 8 7 6 6 6 8 10 11 10 10 9 7 4 3 3 3 2 4 4 5 6 8 10 12 13 14 16 17 18 19 19 18 19 20 20 19 16 15 14
7 4 3 5 5 6 6 6 6 6 5 5 5 7 8 10 10 11 13 14 14 15 15 14 13 13 11 8 8 11 14 15 15 17 19 19 19 19 18 19 22 23 21 19 19 15 8 2 2 4 6 7 8 9 10 11 11 11 9 6 3 3 2 1 2 3 5 7 7 8 10 12 13 13 13 14 15 16 16 17 17 17 17 16 14 13 11
6 5 5 5 5 6 7 7 6 6 5 5 6 8 9 10 12 13 14 14 13 13 12 11 11 11 10 7 7 10 13 14 16 17 18 18 17 16 16 19 22 23 23 22 20 15 9 6 7 9 10 10 11 12 13 13 13 11 8 5 4 4 4 4 5 6 7 8 8 8 9 10 11 12 12 13 13 13 14 14 14 14 13 12 11 10 10
5 5 5 5 6 7 7 6 6 6 6 6 7 9 9 11 12 12 12 10 10 10 10 9 9 10 9 6 7 10 13 14 16 18 18 17 16 15 14 17 21 22 22 21 18 13 10 10 11 11 11 12 15 16 16 14 12 10 7 6 6 6 5 5 7 8 9 9 8 8 8 8 9 10 11 11 10 10 10 10 10 10 10 10 11 11 11
4 4 5 6 7 7 7 6 6 7 7 7 8 10 10 10 10 10 9 8 8 8 8 7 8 10 9 6 7 10 12 14 16 18 18 17 16 14 14 17 21 20 18 17 16 14 11 11 12 13 15 17 18 17 15 13 11 10 8 7 7 6 5 5 6 8 9 9 9 8 9 9 10 11 11 11 10 10 11 10 11 11 11 12 12 14 15
6 6 7 7 8 8 8 7 8 8 8 9 10 11 11 11 10 9 8 7 8 7 6 5 7 9 8 6 6 8 10 12 15 17 18 18 18 16 15 18 22 20 17 15 15 15 14 15 17 19 19 18 17 14 13 12 11 9 8 7 7 6 5 5 7 8 9 10 10 10 11 12 12 13 13 13 13 13 13 13 13 14 14 14 15 16 17
8 8 9 9 10 10 10 9 9 9 9 9 10 11 11 11 10 8 7 7 7 6 4 4 5 7 7 5 5 6 7 9 12 14 16 18 18 15 13 16 20 20 17 14 12 12 13 15 16 17 16 15 13 12 12 10 9 8 8 8 7 7 6 7 7 8 9 10 11 12 12 13 14 14 14 15 15 15 15 15 15 15 16 16 17 17 17
9 9 10 10 11 11 11 11 10 9 8 8 9 9 9 9 8 8 7 7 7 5 4 3 4 5 5 5 5 4 5 7 10 12 13 15 15 13 12 15 18 18 17 15 13 12 12 13 13 13 13 12 11 10 9 9 9 9 9 9 8 8 8 8 8 9 10 10 12 13 13 14 15 15 15 15 16 15 15 15 15 15 15 15 15 15 15
11 11 11 11 12 13 13 12 11 9 9 8 8 8 9 8 7 7 7 7 6 6 4 3 2 3 4 4 4 4 5 6 7 8 10 11 13 13 12 14 16 16 15 15 15 14 13 13 13 13 12 11 10 9 9 10 10 9 9 10 10 10 11 11 11 12 12 12 13 14 14 14 15 16 16 16 16 15 15 15 15 15 14 14 13 13 13
13 13 13 13 14 14 13 12 11 10 10 9 9 8 8 8 8 7 7 7 6 6 4 4 3 1 1 2 2 4 5 6 7 7 9 10 12 13 13 13 14 14 14 15 16 15 14 12 12 11 11 11 11 11 11 11 10 10 11 12 12 12 12 13 13 13 14 14 15 15 14 15 15 15 15 16 16 15 15 14 14 13 12 12 11 11 10
13 13 15 15 15 15 15 14 13 13 12 11 9 9 8 8 9 9 8 7 7 6 4 4 4 2 0 1 2 4 5 6 6 7 8 8 8 10 12 12 12 12 13 14 15 15 14 12 10 9 9 9 10 11 12 12 12 13 14 14 14 14 15 15 14 14 15 15 15 15 14 14 14 14 14 14 14 13 13 12 11 10 9 9 9 8 8
13 14 14 14 15 16 17 17 16 15 13 11 9 9 8 7 8 9 9 9 8 6 5 4 4 3 2 0 1 2 3 4 5 6 7 7 6 7 9 10 10 10 12 13 13 14 13 11 10 10 9 10 10 12 13 14 14 14 15 15 14 14 14 14 14 13 13 13 13 13 13 12 12 12 11 11 11 10 9 8 8 7 6 6 6 6 6
12 12 13 15 16 18 18 17 16 14 11 9 9 9 8 6 7 9 10 10 9 8 6 4 4 4 3 2 1 1 1 2 4 4 4 5 5 6 7 8 9 9 10 11 12 12 12 11 11 11 11 12 13 14 15 15 15 15 15 15 14 14 14 14 14 14 14 14 14 14 14 13 13 13 12 12 12 11 10 9 9 8 7 7 7 7 6
12 13 15 16 17 16 16 15 14 13 12 12 12 12 9 6 6 7 9 10 10 10 9 6 4 4 4 4 3 1 1 0 2 2 3 3 5 6 7 8 8 8 9 10 11 11 11 11 11 11 11 12 14 15 16 16 16 15 15 15 15 15 15 15 15 14 14 15 16 16 16 15 14 14 13 13 13 12 11 10 10 8 8 8 7 7 6
13 14 15 15 14 14 14 14 14 15 16 17 17 15 12 9 7 7 8 9 10 11 11 9 6 4 3 4 4 3 1 1 0 2 2 3 4 5 6 7 8 7 8 9 10 10 10 10 11 11 12 13 14 15 15 15 15 15 15 15 15 15 15 14 14 14 14 15 15 15 15 14 13 12 12 11 11 11 10 10 9 9 8 8 8 7 7
12 12 13 14 15 16 16 16 16 19 20 21 19 18 15 13 11 10 9 8 9 11 12 12 9 6 4 4 4 4 3 2 2 3 2 2 3 4 5 6 8 8 8 8 9 9 9 9 10 10 11 12 13 14 14 14 15 14 14 14 14 13 13 12 12 13 14 15 14 13 12 12 11 10 10 10 10 10 10 10 10 10 11 11 11 11 11
12 13 15 17 19 20 20 20 21 22 23 22 21 20 18 16 15 14 12 9 9 11 13 13 12 10 8 6 5 5 5 5 4 3 2 1 2 4 4 5 6 8 8 8 8 8 8 8 9 10 10 11 11 12 12 13 13 13 13 13 12 11 11 11 11 12 12 12 11 10 10 10 10 10 10 9 9 9 10 10 11 11 11 12 12 12 12
16 17 18 18 18 19 19 20 21 22 21 21 20 20 20 19 18 16 14 12 12 12 13 14 15 13 12 10 8 7 7 7 6 4 3 2 1 2 3 4 4 5 6 8 8 8 8 8 8 8 9 9 10 10 11 11 11 12 11 11 11 11 11 11 11 11 11 10 10 10 10 10 10 10 10 9 9 9 9 10 11 11 12 12 12 12 12
Wind_Direction
31 61 22 5 60 65 66 86 61 336 12 52 83 127 270 139 137 207 219 102 91 321 333 339 325 324 344 9 6 354 350 349 0 28 35 29 27 29 36 39 37 49 56 52 85 108 115 121 124 126 130 135 135 136 141 151 163 162 157 166 176 178 176 177 180 180 175 173 180 179 167 173 199 209 217 227 232 242 256 265 267 261 255 257 256 254 256
27 32 24 30 70 65 24 14 12 22 68 81 100 105 322 30 135 165 126 96 67 322 310 323 324 329 28 51 32 25 21 3 6 42 42 24 26 30 28 24 22 24 20 18 32 64 89 101 111 119 126 133 138 137 136 140 145 144 147 157 166 172 177 183 189 192 191 188 186 175 159 168 184 188 199 218 229 244 259 262 261 255 250 252 255 257 260
9 358 30 51 92 103 78 355 357 39 87 84 71 43 6 47 89 107 101 89 63 352 335 350 358 34 57 54 41 33 27 12 22 47 41 31 40 41 36 34 32 31 30 30 34 39 42 47 65 86 101 115 121 123 126 130 131 131 136 142 145 149 155 163 170 175 178 175 167 158 151 154 157 154 158 171 180 196 213 220 225 227 232 243 252 258 261
260 315 95 117 107 104 108 16 1 11 59 95 75 40 19 58 140 131 102 96 100 312 347 31 46 56 59 53 41 37 33 27 39 51 44 39 40 40 45 46 39 35 30 28 36 42 40 37 45 54 61 92 106 110 115 117 118 124 125 123 124 125 127 135 143 147 152 155 153 152 151 150 149 145 142 141 141 143 144 142 143 146 148 149 160 190 246
185 278 97 122 101 97 132 270 335 8 80 120 98 47 14 360 134 144 141 158 190 254 22 70 64 59 61 56 42 38 35 34 46 52 49 47 41 37 43 44 43 43 39 38 42 46 46 43 41 39 41 68 88 97 107 113 119 125 124 119 117 117 119 123 127 130 138 143 141 138 137 134 133 132 129 125 122 121 120 121 121 119 115 107 98 86 67
169 254 21 68 95 154 234 275 273 189 146 125 105 71 6 355 34 116 137 132 128 95 83 90 82 72 72 66 54 48 40 38 46 46 44 47 44 39 41 42 43 42 43 47 47 46 49 50 50 49 49 53 70 87 100 110 117 120 122 121 118 117 120 122 122 123 128 131 131 128 126 125 124 123 120 116 114 114 114 115 115 112 109 102 88 71 52
150 222 50 87 188 224 251 309 323 126 123 116 107 89 41 14 28 63 86 90 105 108 100 101 98 96 94 80 59 46 37 36 46 46 40 36 34 32 33 38 40 39 42 45 44 44 49 52 51 50 46 47 56 66 75 84 89 94 105 111 109 111 115 116 119 124 127 131 134 132 129 127 124 121 119 116 114 113 110 111 115 114 111 104 91 66 33
139 101 88 152 225 264 287 324 341 67 90 80 87 71 30 10 13 51 85 80 86 100 91 95 104 112 102 73 52 37 31 31 39 47 42 35 34 26 18 19 25 30 32 35 36 35 41 51 55 49 45 51 59 60 64 66 65 70 83 88 88 93 100 103 109 119 128 138 142 140 138 135 129 126 125 123 122 121 120 122 122 117 112 99 69 37 13
139 117 119 195 354 343 275 282 339 103 310 323 114 104 22 341 346 58 108 80 32 30 7 331 334 4 57 56 34 17 19 23 31 44 45 43 41 31 26 30 33 32 23 18 22 19 15 31 46 30 22 46 68 62 59 58 55 58 64 69 69 72 81 87 93 103 117 128 132 133 135 132 127 123 123 122 121 120 122 128 128 123 120 89 14 357 352
113 99 95 42 22 300 234 234 272 281 248 220 157 115 38 319 331 9 118 96 47 33 15 345 342 34 55 45 357 344 1 7 19 35 36 39 41 34 31 33 35 38 38 32 32 30 24 23 12 343 337 337 15 45 41 46 61 55 52 63 65 49 56 62 72 94 113 123 127 128 129 127 123 119 117 113 108 105 106 111 112 114 120 308 298 305 323
112 112 131 166 187 222 235 251 290 309 269 189 120 81 322 275 330 4 89 91 65 56 46 16 30 74 74 41 292 309 337 345 2 21 21 27 34 32 31 32 30 31 33 31 31 32 31 26 14 356 340 318 290 289 312 328 263 247 236 199 210 229 230 233 236 223 200 174 150 137 133 133 131 128 126 119 108 98 91 82 73 67 47 351 320 316 323
116 120 138 185 192 219 261 278 295 305 256 134 99 95 247 260 6 7 83 93 74 64 67 52 61 89 126 192 247 290 317 327 349 12 11 14 21 22 24 27 26 23 20 17 19 24 24 19 10 2 352 333 309 296 298 300 285 260 246 240 243 243 231 224 223 220 218 220 230 233 205 179 161 155 150 136 121 104 74 49 33 19 356 330 316 311 311
73 104 114 348 255 248 285 299 299 302 169 122 125 205 231 283 33 9 53 79 53 38 57 64 78 128 182 197 236 299 322 330 347 3 5 8 13 16 16 16 15 13 11 8 8 11 13 9 3 2 355 335 312 298 294 292 286 277 271 267 262 255 245 233 220 218 225 236 247 247 234 220 208 200 203 206 206 216 233 5 334 311 295 292 292 293 295
52 108 112 86 260 284 331 312 303 322 103 159 207 215 210 132 84 33 37 51 24 23 43 56 74 82 315 332 327 321 326 323 333 351 360 2 4 5 7 10 8 2 358 356 354 352 355 355 351 352 352 342 325 307 290 282 283 286 287 283 271 261 252 239 228 229 234 233 230 226 222 221 222 222 227 234 238 239 241 255 270 264 255 263 270 278 286
60 74 73 104 183 303 331 325 322 1 90 174 196 160 89 102 98 56 48 49 19 20 31 14 346 322 322 325 317 314 316 319 333 345 353 356 355 356 359 3 4 0 354 349 344 338 338 340 338 338 339 338 335 326 311 302 297 291 285 279 272 266 256 242 232 233 233 226 220 219 219 221 223 225 226 229 233 239 245 250 250 242 243 252 257 264 273
81 102 98 154 190 292 326 27 90 43 65 159 157 86 49 51 51 42 43 29 359 14 22 351 332 312 314 318 320 322 324 331 339 343 347 350 352 354 356 356 356 356 351 346 341 334 329 330 330 329 329 328 324 320 318 322 320 308 292 277 267 263 256 245 235 229 225 221 221 222 222 221 221 221 222 223 226 232 238 237 231 232 240 246 251 258 265
83 117 144 165 191 298 346 51 93 99 83 84 101 99 75 48 50 106 67 20 353 5 13 349 339 320 321 327 329 329 329 328 334 339 342 345 347 347 347 347 346 345 341 337 334 329 326 326 324 322 323 322 316 310 309 313 318 319 312 296 273 260 254 248 237 227 220 218 218 220 219 218 219 219 219 220 221 224 228 228 228 233 239 243 250 257 263
79 63 73 115 155 206 36 61 93 124 138 162 156 136 140 211 220 140 56 8 348 360 24 18 347 321 330 338 333 331 334 330 332 337 338 338 342 341 340 339 338 337 334 330 328 325 321 319 318 315 314 313 309 307 305 305 307 312 313 306 289 269 259 251 239 227 220 216 215 215 216 219 222 223 224 225 227 228 230 232 236 241 244 247 251 254 260
99 90 149 169 167 174 143 109 80 79 107 133 130 140 169 192 135 48 23 25 9 12 36 39 330 307 330 349 338 331 337 331 329 333 331 329 332 332 330 331 330 328 326 325 324 324 322 320 318 312 305 301 300 302 304 304 304 304 303 302 295 282 269 259 245 231 223 220 217 216 218 221 224 227 230 234 237 240 241 242 243 245 247 249 250 253 258
98 182 200 183 30 316 293 149 142 156 150 81 58 82 138 120 96 64 44 65 81 49 44 60 325 314 333 344 330 325 326 321 319 320 319 319 321 321 319 319 318 317 315 313 312 313 314 317 319 315 307 300 295 293 296 299 301 299 295 291 289 284 277 268 254 239 230 227 226 225 226 229 231 235 238 242 246 249 252 254 254 253 253 254 254 256 259
68 161 190 78 36 329 306 283 237 229 212 159 66 57 79 86 86 77 63 67 88 90 68 57 27 347 329 320 320 318 313 312 314 314 313 313 313 313 313 311 310 308 304 300 299 299 300 304 307 308 307 306 303 298 294 291 292 292 288 283 280 278 276 269 257 243 233 231 232 235 238 238 240 242 242 244 248 250 252 255 258 259 259 258 259 262 261
108 225 193 160 148 242 257 237 230 234 198 135 115 102 80 61 57 74 66 47 45 54 46 24 12 341 312 316 324 317 308 309 312 313 314 312 310 309 309 308 305 302 298 295 293 292 294 298 298 297 297 300 303 306 303 296 290 288 286 281 276 272 269 266 257 246 239 238 239 242 245 246 246 247 246 247 249 250 251 251 252 255 257 258 259 259 257
216 227 199 166 145 189 230 211 205 223 168 122 130 147 121 81 74 104 90 44 1 351 346 341 333 310 307 319 323 313 306 309 311 312 312 309 306 305 305 303 301 300 300 298 295 293 296 299 297 293 291 291 294 302 310 310 301 290 284 279 273 267 263 258 251 245 243 244 246 249 251 254 256 257 257 256 255 254 255 254 252 252 254 255 256 255 252
221 225 201 177 152 171 215 205 199 214 151 134 135 148 148 153 181 167 166 188 213 249 290 310 315 310 310 316 316 307 305 311 314 314 312 308 304 302 301 299 299 300 301 300 296 295 296 298 297 294 289 286 287 293 306 316 313 297 285 278 270 263 258 252 247 245 247 251 255 258 261 264 266 267 267 267 265 262 260 258 258 257 254 252 252 251 250
216 202 179 169 160 158 157 119 80 96 140 139 133 156 178 189 201 201 204 211 212 223 254 289 309 312 307 307 309 303 298 305 311 312 311 309 306 303 299 296 297 298 298 298 296 295 294 295 295 293 287 284 286 289 298 314 319 304 286 279 271 263 258 258 258 260 263 266 268 270 271 272 272 271 269 268 268 267 265 263 262 261 259 254 248 245 245
185 130 110 106 97 88 94 83 55 98 150 141 135 167 190 198 206 209 212 220 230 251 277 291 306 312 305 298 301 299 294 298 305 307 306 306 306 304 300 297 297 297 296 295 294 292 291 292 291 289 285 284 287 289 295 311 321 308 281 270 270 266 266 273 274 273 275 275 275 276 276 274 273 270 267 264 265 265 264 260 256 257 258 252 244 240 240
129 116 104 82 26 339 199 186 179 175 168 157 154 173 190 197 206 217 234 255 274 300 310 305 307 313 309 303 302 299 295 295 297 298 300 301 303 303 300 298 298 297 295 293 291 288 288 286 284 284 283 284 289 292 293 305 320 316 281 258 269 275 276 281 280 277 276 275 274 274 273 271 271 269 267 265 263 258 255 251 244 242 244 241 233 228 225
108 131 143 163 222 234 219 188 167 164 169 171 171 176 184 187 204 256 287 300 311 318 318 316 317 313 307 306 305 301 297 295 293 292 297 301 302 301 299 297 296 295 293 291 288 285 284 281 278 277 278 280 285 289 289 298 316 319 288 255 271 283 281 281 279 274 272 272 271 271 271 269 268 264 261 258 254 248 245 241 231 222 214 204 194 190 191
272 285 141 159 165 148 126 127 146 162 179 187 186 184 182 181 349 343 310 305 320 322 316 318 320 311 303 303 303 298 294 293 292 293 299 304 304 301 299 299 297 294 289 286 284 281 277 275 273 272 274 275 279 283 283 289 307 315 296 263 278 285 277 276 275 272 274 277 275 273 271 267 262 255 248 245 243 238 231 222 212 202 185 169 159 153 153
270 24 76 98 113 116 120 137 167 199 218 203 196 204 164 105 339 318 301 305 313 309 307 312 315 311 307 305 305 302 298 295 296 300 304 305 303 302 303 302 298 291 285 282 280 276 273 271 269 270 273 276 279 280 277 278 293 305 291 253 264 278 269 276 281 281 290 292 285 278 272 264 255 246 237 231 227 220 210 199 191 180 166 157 151 144 143
101 57 69 92 118 137 161 181 192 221 236 198 173 208 314 27 305 289 294 303 300 297 305 311 309 308 309 310 312 312 309 305 306 307 308 308 308 309 309 305 298 291 287 285 281 275 270 267 265 267 273 276 277 275 268 267 280 289 262 219 221 241 263 280 263 172 333 316 292 275 266 256 243 232 222 211 201 192 183 174 167 160 155 150 144 140 141
87 53 40 25 164 193 221 211 200 225 232 184 170 215 240 241 259 270 277 287 292 298 306 309 306 307 313 316 317 320 323 321 318 316 316 316 315 314 314 310 303 297 292 289 285 277 270 264 262 265 270 271 268 265 257 256 263 260 222 202 201 197 202 184 159 149 353 347 316 261 244 226 210 199 190 181 171 163 155 148 143 142 139 134 131 133 139
111 80 303 256 246 256 262 247 218 224 228 205 202 237 252 250 258 267 273 283 294 300 302 304 307 312 318 320 321 330 335 331 326 322 321 319 317 320 323 323 318 312 306 301 296 287 275 266 264 267 268 265 261 252 236 234 237 221 197 195 198 193 193 183 178 217 360 17 41 83 128 145 148 146 145 146 143 139 137 134 133 131 129 128 129 135 142
170 193 210 207 204 214 227 225 216 223 235 234 236 255 265 266 268 274 280 287 293 296 299 304 311 318 323 324 329 340 344 337 326 322 322 322 325 330 334 334 333 331 327 321 315 306 289 273 266 264 260 253 246 222 195 196 203 196 186 187 184 172 177 187 208 313 360 37 67 71 82 103 114 117 119 123 124 124 125 125 126 128 129 129 133 137 139
202 210 220 216 212 209 202 196 200 208 211 220 244 259 268 272 273 276 284 289 291 297 305 311 315 322 329 332 336 344 345 337 326 323 324 327 332 336 339 342 345 347 348 352 355 348 322 282 260 250 238 223 204 181 172 177 184 179 173 171 159 141 158 190 276 336 18 77 92 81 80 87 93 100 107 111 112 115 117 118 122 127 131 133 135 136 135
207 203 208 215 215 210 204 203 206 204 198 210 239 257 268 277 281 285 291 298 303 309 315 317 318 326 336 341 342 345 344 338 333 331 331 332 337 341 344 349 354 357 359 3 9 11 5 322 198 176 172 165 157 154 156 160 164 164 162 159 145 132 139 131 39 48 82 104 105 95 91 90 90 96 105 110 113 117 119 122 126 131 133 136 138 138 139
212 207 211 215 210 207 212 216 216 210 210 229 252 263 273 285 296 302 306 311 318 322 321 316 318 329 340 346 346 347 348 347 345 343 340 341 345 351 355 360 4 5 1 359 5 20 43 83 115 131 139 136 133 137 143 147 152 155 151 140 128 120 109 92 82 82 93 104 108 108 107 104 101 105 112 117 121 123 123 123 127 131 135 140 147 152 155
216 216 223 228 219 213 217 220 217 214 220 241 259 270 279 293 306 315 320 325 329 327 320 317 321 331 339 347 350 352 356 359 358 356 354 356 359 1 2 6 9 6 358 359 12 36 67 91 101 113 124 128 131 135 140 143 146 143 132 122 120 115 102 92 88 87 91 99 107 117 124 122 118 117 118 119 122 124 127 128 131 135 141 148 154 158 158
203 209 219 224 220 216 216 215 215 221 231 246 263 276 289 303 315 322 324 329 334 329 321 321 329 335 340 350 354 354 359 6 8 5 3 6 9 10 12 17 18 14 9 18 37 57 82 102 110 116 123 127 129 133 137 140 138 130 121 118 118 113 103 90 86 89 95 100 105 115 124 128 128 126 123 122 122 125 130 135 138 141 144 147 148 148 146
202 206 209 210 211 214 215 216 225 236 246 255 264 274 288 303 314 315 313 322 333 329 317 318 332 338 345 353 353 352 1 12 14 11 11 14 15 15 15 18 22 25 29 36 49 65 84 101 109 113 116 121 125 127 131 134 131 124 119 120 118 113 109 101 96 100 104 105 106 110 116 120 122 121 120 120 122 124 127 130 132 134 136 138 139 140 139
215 212 208 207 211 216 220 226 238 251 259 260 264 273 287 299 303 299 300 317 330 324 307 310 331 341 345 349 346 350 6 18 19 19 20 19 16 12 8 10 17 28 39 47 56 72 86 97 105 109 111 114 119 121 122 126 128 124 122 124 122 119 116 112 108 108 109 109 110 112 113 116 118 118 117 118 120 122 124 126 126 127 131 133 135 136 138
220 214 210 211 215 220 226 232 242 253 259 260 265 279 293 297 292 285 288 305 320 316 297 296 329 344 346 342 341 351 9 19 23 27 30 26 20 13 6 9 19 33 47 56 63 75 86 92 102 112 117 117 115 116 118 123 127 125 123 124 122 119 115 112 109 110 112 114 115 116 117 119 120 118 118 119 119 120 122 123 123 124 128 132 134 136 138
222 214 210 213 219 224 230 235 241 249 259 264 270 282 288 285 278 277 280 290 304 309 295 282 313 346 349 340 343 2 14 18 23 31 38 41 37 29 20 19 27 40 53 62 66 72 79 86 94 106 114 114 114 118 122 124 125 125 123 120 115 111 110 110 111 113 115 116 116 117 118 119 118 117 117 117 116 116 118 119 119 122 126 129 132 134 136
225 215 214 219 223 226 230 233 237 244 252 260 270 282 283 270 260 264 273 279 292 304 299 280 276 321 14 9 16 31 33 30 31 37 40 41 40 37 34 33 36 42 53 64 69 72 75 81 91 101 109 113 116 120 121 120 119 119 118 115 112 110 109 110 110 110 109 109 109 111 112 111 111 112 113 112 112 112 112 112 113 116 119 122 126 129 131
230 224 224 225 226 225 227 231 235 239 244 253 267 282 282 263 248 251 263 270 277 292 303 294 273 256 182 77 65 64 59 50 44 43 40 34 27 28 32 36 39 42 49 59 68 73 77 81 86 93 102 109 114 116 114 112 112 111 110 109 108 107 106 105 103 102 101 100 100 101 102 103 105 106 107 108 108 108 107 107 108 111 113 116 119 121 124
237 235 231 228 228 229 231 234 238 241 245 252 264 275 275 259 242 241 248 256 263 275 295 306 293 270 244 182 79 81 83 73 60 51 46 42 35 30 31 36 41 46 51 56 64 72 79 82 84 86 93 101 105 105 104 105 105 105 105 104 103 102 102 101 99 97 96 96 96 96 97 99 101 101 101 102 102 101 102 105 107 108 112 120 125 127 131
240 239 235 232 234 237 237 236 237 240 240 241 248 259 265 259 246 245 249 251 253 257 266 288 306 292 264 255 297 27 113 102 82 66 53 46 41 36 35 37 43 51 59 63 67 72 76 80 84 89 96 101 103 104 105 106 105 104 103 102 101 100 100 99 99 99 99 99 98 98 97 98 98 98 96 94 92 92 93 95 95 96 101 108 116 125 135
239 239 240 239 240 240 237 231 229 230 230 231 237 247 252 248 243 249 255 253 248 244 244 253 279 294 277 268 277 290 258 111 72 72 65 47 39 39 42 44 48 56 64 70 73 77 80 82 85 91 96 100 102 103 104 104 102 101 99 99 99 99 99 98 98 101 104 104 102 99 98 98 99 98 96 94 92 91 91 93 96 99 101 102 104 106 109
245 245 246 244 240 238 231 223 220 227 232 233 236 241 243 238 235 244 254 254 247 240 236 237 244 260 270 267 263 256 256 280 71 110 95 54 41 45 48 49 53 62 71 76 79 82 85 89 93 96 99 101 102 103 102 100 98 97 98 100 102 102 101 98 97 99 104 107 105 102 100 99 98 95 94 92 90 88 87 90 94 98 100 101 105 105 103
247 241 238 236 235 233 228 223 224 230 234 234 234 235 235 231 230 239 249 252 246 239 235 234 235 239 243 247 246 239 230 208 162 148 135 66 52 59 57 53 57 65 74 81 85 87 90 95 100 102 103 105 105 103 101 99 99 99 100 102 103 102 100 99 98 99 102 104 103 102 101 99 96 93 91 89 87 85 83 84 89 94 97 100 103 106 106
244 236 236 240 241 239 236 235 236 238 238 237 236 234 231 228 232 239 244 243 237 233 230 229 230 232 232 231 228 223 217 206 185 171 173 139 74 73 70 65 65 67 69 75 84 91 96 100 103 105 107 108 108 106 103 100 99 99 99 99 98 96 96 98 102 104 104 103 101 101 102 100 94 90 89 88 86 83 81 83 89 95 98 99 99 100 101
251 249 249 249 247 244 243 243 244 244 242 240 238 234 230 228 231 235 235 233 231 230 229 228 230 232 232 230 224 217 213 209 202 194 192 188 131 90 88 92 87 76 68 69 76 87 97 104 106 109 110 109 109 109 108 105 102 101 98 94 92 91 92 93 97 102 102 100 99 102 104 101 93 87 84 82 80 80 82 86 92 96 97 98 98 98 98